Waarnemingen

Advertentie
Mijn weer
St-Auban-Sur-Durance, Frankrijk (7588): temperatuur & dauwpunt: 20.06.2019 10:00:00 - 26.06.2019 10:00:00 (CEST)St-Auban-Sur-Durance, Frankrijk (7588): temperatuur 5cm: 20.06.2019 10:00:00 - 26.06.2019 10:00:00 (CEST)St-Auban-Sur-Durance, Frankrijk (7588): temperatuur -20cm: 20.06.2019 10:00:00 - 26.06.2019 10:00:00 (CEST)St-Auban-Sur-Durance, Frankrijk (7588): windsnelheid & windstoten: 20.06.2019 10:00:00 - 26.06.2019 10:00:00 (CEST)St-Auban-Sur-Durance, Frankrijk (7588): windrichting: 20.06.2019 10:00:00 - 26.06.2019 10:00:00 (CEST)St-Auban-Sur-Durance, Frankrijk (7588): luchtdruk: 20.06.2019 10:00:00 - 26.06.2019 10:00:00 (CEST)St-Auban-Sur-Durance, Frankrijk (7588): zicht: 20.06.2019 10:00:00 - 26.06.2019 10:00:00 (CEST)St-Auban-Sur-Durance, Frankrijk (7588): Zonneschijnduur: 20.06.2019 10:00:00 - 26.06.2019 10:00:00 (CEST)St-Auban-Sur-Durance, Frankrijk (7588): neerslag: 20.06.2019 10:00:00 - 26.06.2019 10:00:00 (CEST)
Datum & Tijd tt [°C] td [°C] tt 5cm [°C] tt -20cm [°C] ff [km/u] ff [kn] fx [km/u] fx [kn] dd ppp [hPa] vv [km] sd [min] rr [mm]
26.06.2019 10:00:00 27,0 16,9 33,4 26,0 8 4 18 10 NO 1022,4 20 60 0,0
26.06.2019 09:00:00 24,1 16,6 27,5 26,1 8 4 16 9 ONO 1022,8 20 60 0,0
26.06.2019 08:00:00 21,1 16,1 20,1 26,4 3 2 12 7 ONO 1023,2 20 60 0,0
26.06.2019 07:00:00 18,6 15,5 17,9 26,6 8 4 12 6 NNO 1023,4 20 41 0,0
26.06.2019 06:00:00 17,3 14,9 17,2 26,8 7 4 12 6 NO 1023,5 20 0 0,0
26.06.2019 05:00:00 17,4 15,2 17,1 27,0 8 4 13 7 NO 1023,3 20 0 0,0
26.06.2019 04:00:00 18,0 15,4 17,5 27,3 5 3 12 7 ONO 1023,2 20 0 0,0
26.06.2019 03:00:00 18,9 15,6 18,3 27,5 9 5 12 6 NNO 1023,1 20 0 0,0
26.06.2019 02:00:00 19,6 15,5 19,0 27,7 3 2 19 10 NNO 1023,0 20 0 0,0
26.06.2019 01:00:00 20,3 15,7 19,5 27,9 7 4 17 9 O 1022,7 20 0 0,0
26.06.2019 00:00:00 21,7 16,0 20,7 28,1 5 3 11 6 OZO 1022,4 20 0 0,0
25.06.2019 23:00:00 23,4 16,0 21,5 28,2 4 2 8 4 OZO 1021,7 20 0 0,0
25.06.2019 22:00:00 25,5 16,1 23,6 28,2 8 5 16 8 ZW 1020,8 20 0 0,0
25.06.2019 21:00:00 28,2 16,1 26,5 28,2 8 5 18 10 ZW 1019,7 20 50 0,0
25.06.2019 20:00:00 31,0 15,4 32,6 28,0 12 7 26 14 ZZW 1018,5 20 54 0,0
25.06.2019 19:00:00 32,7 15,2 37,1 27,7 19 10 29 15 ZZW 1017,8 20 60 0,0
25.06.2019 18:00:00 34,1 15,1 41,0 27,4 21 11 30 16 ZW 1017,3 20 60 0,0
25.06.2019 17:00:00 34,4 14,3 42,3 26,9 23 12 33 18 ZW 1017,3 20 60 0,0
25.06.2019 16:00:00 34,5 15,4 42,7 26,4 20 11 34 18 WZW 1017,3 20 60 0,0
25.06.2019 15:00:00 34,2 16,1 44,5 25,9 19 10 31 17 ZW 1017,4 20 60 0,0
25.06.2019 14:00:00 33,6 16,9 44,0 25,5 16 8 27 15 ZZW 1017,6 20 60 0,0
25.06.2019 13:00:00 32,6 16,4 43,9 25,2 17 9 25 14 ZW 1018,0 20 60 0,0
25.06.2019 12:00:00 31,1 16,3 40,4 25,0 10 5 16 9 ZW 1018,3 20 60 0,0
25.06.2019 11:00:00 28,5 16,1 35,1 25,0 3 2 14 7 O 1018,8 20 60 0,0
25.06.2019 10:00:00 25,0 15,9 30,7 25,1 6 3 15 8 NO 1019,9 20 51 0,0
25.06.2019 09:00:00 21,9 15,3 26,1 25,2 9 5 15 8 NO 1020,6 20 60 0,0
25.06.2019 08:00:00 18,9 14,0 17,6 25,5 9 5 16 9 ONO 1021,1 20 60 0,0
25.06.2019 07:00:00 16,1 13,2 14,8 25,7 6 4 16 9 NO 1021,4 20 29 0,0
25.06.2019 06:00:00 14,9 12,4 14,7 26,0 7 4 13 7 NO 1021,1 20 0 0,0
25.06.2019 05:00:00 15,7 12,4 15,0 26,2 9 5 11 6 NO 1020,2 20 0 0,0
25.06.2019 04:00:00 16,4 13,1 15,9 26,4 6 3 11 6 NO 1020,1 20 0 0,0
25.06.2019 03:00:00 17,3 13,0 16,3 26,7 6 4 13 7 NO 1019,8 20 0 0,0
25.06.2019 02:00:00 18,2 12,9 17,2 26,9 2 1 16 9 N 1019,4 20 0 0,0
25.06.2019 01:00:00 20,4 13,4 18,8 27,1 11 6 19 11 O 1018,9 20 0 0,0
25.06.2019 00:00:00 20,1 13,5 19,0 27,3 7 4 16 8 OZO 1018,9 20 0 0,0
24.06.2019 23:00:00 21,8 13,7 19,9 27,4 6 3 11 6 ZO 1018,4 20 0 0,0
24.06.2019 22:00:00 24,1 12,1 21,7 27,4 10 5 21 11 WZW 1017,3 20 0 0,0
24.06.2019 21:00:00 26,8 12,1 25,7 27,4 16 9 20 11 ZW 1016,4 20 12 0,0
24.06.2019 20:00:00 29,4 12,8 31,1 27,2 11 6 24 13 ZZW 1015,8 20 60 0,0
24.06.2019 19:00:00 31,3 10,6 36,1 26,9 20 11 31 17 ZW 1015,3 20 60 0,0
24.06.2019 18:00:00 32,3 11,5 39,2 26,6 20 11 29 16 ZW 1015,0 20 60 0,0
24.06.2019 17:00:00 32,6 12,8 41,4 26,1 21 11 33 18 ZW 1014,8 20 60 0,0
24.06.2019 16:00:00 32,8 12,4 41,9 25,7 19 10 33 18 ZW 1014,9 20 60 0,0
24.06.2019 15:00:00 32,3 13,5 43,1 25,1 17 9 29 16 ZW 1015,0 20 60 0,0
24.06.2019 14:00:00 30,6 13,8 42,3 24,7 13 7 26 14 ZW 1015,4 20 60 0,0
24.06.2019 13:00:00 29,9 14,0 41,1 24,4 12 7 23 12 ZW 1015,7 20 60 0,0
24.06.2019 12:00:00 28,6 14,1 39,4 24,3 5 3 13 7 ZZW 1016,3 20 60 0,0
24.06.2019 11:00:00 26,0 12,8 33,4 24,3 4 2 10 5 OZO 1017,1 20 60 0,0
24.06.2019 10:00:00 22,5 13,8 28,4 24,4 6 4 12 6 ONO 1017,9 20 60 0,0
24.06.2019 09:00:00 20,1 13,3 21,4 24,6 5 3 11 6 O 1018,6 20 50 0,0
24.06.2019 08:00:00 17,1 12,6 17,3 24,8 6 3 10 5 ONO 1018,9 20 43 0,0
24.06.2019 07:00:00 15,9 12,3 13,8 25,0 8 4 16 9 NO 1019,0 20 40 0,0
24.06.2019 06:00:00 13,9 11,9 13,0 25,3 5 3 9 5 O 1018,8 20 0 0,0
24.06.2019 05:00:00 14,3 12,3 13,4 25,6 5 3 8 4 NO 1018,5 20 0 0,0
24.06.2019 04:00:00 14,3 12,2 13,8 25,8 6 3 12 6 NNO 1018,4 20 0 0,0
24.06.2019 03:00:00 15,3 13,0 14,6 26,0 8 4 11 6 NNO 1018,3 20 0 0,0
24.06.2019 02:00:00 16,1 13,6 15,5 26,3 5 3 9 5 NO 1018,3 20 0 0,0
24.06.2019 01:00:00 17,0 13,7 16,4 26,5 4 2 9 5 O 1018,2 20 0 0,0
24.06.2019 00:00:00 17,8 13,7 17,1 26,7 5 3 9 5 NW 1017,8 20 0 0,0
23.06.2019 23:00:00 20,8 13,7 18,7 26,8 3 2 10 5 Z 1016,6 20 0 0,0
23.06.2019 22:00:00 21,9 14,8 20,2 26,8 2 1 7 4 OZO 1015,3 18 0 0,0
23.06.2019 21:00:00 24,7 13,3 23,3 26,8 2 1 13 7 N 1014,0 20 24 0,0
23.06.2019 20:00:00 27,4 12,2 28,5 26,7 11 6 22 12 ZZW 1013,2 20 13 0,0
23.06.2019 19:00:00 28,2 10,8 30,5 26,4 17 9 29 16 ZW 1012,7 20 17 0,0
23.06.2019 18:00:00 30,2 8,6 37,4 26,0 17 9 29 16 Z 1012,3 20 60 0,0
23.06.2019 17:00:00 30,4 10,9 37,9 25,5 13 7 25 14 Z 1012,2 20 60 0,0
23.06.2019 16:00:00 29,8 10,8 38,8 25,0 15 8 26 14 Z 1012,5 20 60 0,0
23.06.2019 15:00:00 28,8 12,7 35,6 24,5 11 6 28 15 Z 1013,0 20 55 0,0
23.06.2019 14:00:00 28,6 12,9 39,7 24,1 9 5 24 13 ZZW 1013,2 20 60 0,0
23.06.2019 13:00:00 27,5 12,7 38,0 23,8 6 3 17 9 ZO 1013,6 20 60 0,0
23.06.2019 12:00:00 26,2 12,6 36,0 23,6 4 2 15 8 ZZW 1013,8 20 60 0,0
23.06.2019 11:00:00 24,1 13,9 29,5 23,6 10 5 25 14 N 1013,8 20 60 0,0
23.06.2019 10:00:00 21,7 12,8 25,8 23,7 15 8 32 17 N 1014,3 20 60 0,0
23.06.2019 09:00:00 19,5 12,3 21,9 23,9 13 7 28 15 NNO 1014,9 20 60 0,0
23.06.2019 08:00:00 18,0 12,4 17,4 24,1 14 8 30 16 NO 1015,0 20 60 0,0
23.06.2019 07:00:00 16,9 12,8 15,4 24,3 4 2 11 6 O 1015,4 20 31 0,0
23.06.2019 06:00:00 15,9 12,6 14,0 24,6 4 2 24 13 O 1015,4 20 0 0,0
23.06.2019 05:00:00 14,9 12,9 13,6 24,8 6 3 17 9 O 1015,5 20 0 0,0
23.06.2019 04:00:00 14,8 13,3 14,1 25,0 0 0 9 5 N 1015,5 20 0 0,0
23.06.2019 03:00:00 15,1 13,6 14,8 25,2 4 2 10 5 O 1015,3 20 0 0,0
23.06.2019 02:00:00 15,8 13,8 15,4 25,5 5 3 10 5 N 1015,3 20 0 0,0
23.06.2019 01:00:00 16,2 14,0 15,7 25,7 6 3 14 8 ONO 1015,0 20 0 0,0
23.06.2019 00:00:00 16,9 14,4 16,6 25,9 5 3 9 5 NO 1014,8 20 0 0,0
22.06.2019 23:00:00 17,9 14,6 17,7 26,0 3 2 6 3 NW 1014,7 20 0 0,0
22.06.2019 22:00:00 19,5 14,9 19,2 26,1 3 1 9 5 OZO 1013,6 20 0 0,0
22.06.2019 21:00:00 22,0 15,4 22,1 26,1 4 2 13 7 WZW 1012,2 20 4 0,0
22.06.2019 20:00:00 25,1 14,2 25,8 26,0 8 4 11 6 W 1011,4 20 39 0,0
22.06.2019 19:00:00 26,4 13,5 27,8 25,9 6 3 10 6 Z 1011,0 20 35 0,0
22.06.2019 18:00:00 25,2 14,9 28,6 25,7 6 3 21 11 NW 1011,3 20 19 0,0
22.06.2019 17:00:00 25,2 14,0 28,2 25,4 11 6 26 14 N 1011,6 20 21 0,0
22.06.2019 16:00:00 26,1 12,2 34,4 25,1 16 9 29 16 N 1011,7 20 60 0,0
22.06.2019 15:00:00 25,3 14,4 31,9 24,9 19 10 27 14 N 1012,2 20 54 0,0
22.06.2019 14:00:00 23,1 17,8 19,9 25,1 4 2 20 11 ONO 1013,2 20 42 0,0
22.06.2019 13:00:00 17,9 16,2 16,5 25,6 14 8 31 17 NNO 1014,3 20 0 20,4
22.06.2019 12:00:00 21,1 13,5 22,4 25,5 21 12 31 17 N 1013,7 19 17 0,0
22.06.2019 11:00:00 23,9 13,1 30,0 25,6 12 6 24 13 N 1012,9 20 60 0,0
22.06.2019 10:00:00 21,8 12,4 27,0 25,6 11 6 31 17 NO 1013,5 20 60 0,0
22.06.2019 09:00:00 20,2 12,4 21,3 25,8 16 9 29 16 NNO 1013,9 20 56 0,0
22.06.2019 08:00:00 19,0 13,2 19,7 26,0 13 7 29 16 NO 1014,2 20 40 0,0
22.06.2019 07:00:00 18,4 13,5 18,9 26,2 14 8 27 14 NO 1014,0 20 28 0,0
22.06.2019 06:00:00 18,3 14,2 19,0 26,4 12 7 24 13 NNO 1014,1 20 0 0,0
22.06.2019 05:00:00 18,8 14,7 16,3 26,6 16 9 31 17 NNO 1013,9 20 0 0,0
22.06.2019 04:00:00 16,9 15,6 16,8 26,8 0 0 7 4 N 1014,6 20 0 0,0
22.06.2019 03:00:00 17,1 15,4 16,5 27,0 4 2 10 5 OZO 1014,7 20 0 0,0
22.06.2019 02:00:00 17,9 15,7 17,4 27,2 3 2 8 4 ONO 1014,8 20 0 0,0
22.06.2019 01:00:00 19,2 16,8 19,3 27,3 4 2 12 7 W 1014,8 20 0 0,0
22.06.2019 00:00:00 19,0 16,0 18,5 27,5 4 2 8 5 ZO 1014,8 20 0 0,0
21.06.2019 23:00:00 20,1 16,5 19,9 27,6 9 5 14 8 W 1014,3 20 0 0,0
21.06.2019 22:00:00 21,1 16,5 21,0 27,6 11 6 16 8 WZW 1014,0 20 0 0,0
21.06.2019 21:00:00 23,1 15,4 22,6 27,6 4 2 26 14 ZZO 1012,9 19 3 0,0
21.06.2019 20:00:00 24,6 15,5 25,9 27,5 17 9 31 17 ZZW 1012,2 20 1 0,0
21.06.2019 19:00:00 26,2 15,6 28,9 27,3 18 10 59 32 Z 1011,3 20 0 0,0
21.06.2019 18:00:00 28,7 14,1 33,2 27,0 14 8 36 19 ZZW 1010,6 20 33 0,0
21.06.2019 17:00:00 29,4 11,9 37,5 26,6 19 10 31 17 ZW 1010,4 20 31 0,0
21.06.2019 16:00:00 29,1 12,9 38,2 26,3 19 10 33 18 ZW 1010,9 20 44 0,0
21.06.2019 15:00:00 28,8 12,7 39,3 25,9 13 7 32 17 ZW 1011,5 20 56 0,0
21.06.2019 14:00:00 28,1 13,6 33,5 25,5 14 8 28 15 ZW 1012,1 20 40 0,0
21.06.2019 13:00:00 26,8 14,2 36,9 25,3 13 7 30 16 WZW 1013,1 20 56 0,0
21.06.2019 12:00:00 25,1 14,5 33,9 25,2 16 9 22 12 ZZW 1013,5 20 41 0,0
21.06.2019 11:00:00 23,7 14,4 33,2 25,2 15 8 26 14 ZZW 1013,5 20 60 0,0
21.06.2019 10:00:00 22,6 14,2 27,7 25,3 19 10 27 14 ZW 1013,7 20 55 0,0
21.06.2019 09:00:00 22,4 13,7 25,2 25,5 16 8 29 15 NNO 1013,5 20 60 0,0
21.06.2019 08:00:00 20,6 13,3 20,6 25,6 16 9 29 15 NO 1013,4 20 50 0,0
21.06.2019 07:00:00 19,4 13,1 19,6 25,8 10 5 28 15 NO 1013,5 20 9 0,0
21.06.2019 06:00:00 19,5 12,7 19,8 26,0 12 6 23 12 NNO 1013,1 20 0 0,0
21.06.2019 05:00:00 19,8 13,0 20,1 26,1 10 5 34 18 NO 1013,3 20 0 0,0
21.06.2019 04:00:00 20,6 13,3 20,9 26,3 20 11 36 19 N 1013,2 20 0 0,0
21.06.2019 03:00:00 20,1 15,1 19,5 26,5 9 5 19 11 NNO 1013,9 20 0 0,0
21.06.2019 02:00:00 19,9 16,1 19,8 26,6 5 3 12 6 NNO 1014,1 20 0 0,0
21.06.2019 01:00:00 20,7 16,3 20,8 26,7 8 5 17 9 WZW 1013,9 20 0 0,0
21.06.2019 00:00:00 21,6 15,2 21,2 26,9 9 5 16 9 WZW 1013,6 20 0 0,0
20.06.2019 23:00:00 22,6 13,6 22,2 26,9 4 2 15 8 NW 1012,6 20 0 0,0
20.06.2019 22:00:00 23,6 13,5 22,9 26,9 9 5 14 7 Z 1012,1 20 0 0,0
20.06.2019 21:00:00 25,4 13,3 25,7 26,8 9 5 16 9 N 1010,8 20 12 0,0
20.06.2019 20:00:00 27,7 12,9 30,4 26,7 6 4 14 8 WNW 1010,1 20 33 0,0
20.06.2019 19:00:00 28,9 12,3 32,6 26,4 9 5 18 10 WZW 1009,7 20 33 0,0
20.06.2019 18:00:00 28,3 12,6 32,8 26,0 12 6 27 15 W 1009,9 20 17 0,0
20.06.2019 17:00:00 29,6 11,6 34,2 25,6 15 8 28 15 ZW 1009,8 20 31 0,0
20.06.2019 16:00:00 30,1 10,6 41,9 25,1 5 3 25 14 ZZW 1010,0 20 60 0,0
20.06.2019 15:00:00 29,0 8,6 41,3 24,7 8 4 19 11 ZZO 1010,6 20 60 0,0
20.06.2019 14:00:00 28,0 7,3 38,5 24,4 5 3 18 10 WZW 1011,5 20 60 0,0
20.06.2019 13:00:00 26,6 7,6 35,5 24,2 7 4 28 15 NO 1012,2 20 60 0,0
20.06.2019 12:00:00 24,8 9,1 29,3 24,1 13 7 26 14 NO 1012,7 20 52 0,0
20.06.2019 11:00:00 22,6 8,3 23,4 24,2 14 8 29 16 NNO 1013,1 20 16 0,0
20.06.2019 10:00:00 19,6 8,6 22,0 24,3 7 4 19 10 O 1014,3 20 0 0,0

tt = temperatuur
td = dauwpunt
tt 5cm = temperatuur 5cm
tt -20cm = temperatuur -20cm
ff = windsnelheid
fx = windstoten
dd = windrichting
ppp = luchtdruk
vv = zicht
sd = Zonneschijnduur
rr = neerslag

Weerstations in de omgeving